星链-31540 (STARLINK-31540 )

导读

STARLINK-31540是美国太空探索技术公司Starlink星座的卫星,于2024年4月18日发射,属于星链互联网星座组网卫星,旨在为全球提供低延迟、高速率的卫星互联网服务,尤其覆盖偏远地区与网络基础设施薄弱区域。目前该卫星已进入预定轨道,融入星链低轨卫星星座中持续提供通信服务。

基本信息
目录编号:
59542
目录名称:
STARLINK-31540
国际标识:
2024-074J
轨道中心:
EARTH
卫星名称:
星链-31540
卫星全名:
星链-31540 (STARLINK-31540 )
卫星状态:
在轨 (已飞行869 天)
发射日期:
2024-04-18 UTC
国别 :
美国 (US)
星等 :
--
轨道信息
数据来源 国际轨道数据
星历时间: 2026-09-03T20:29:26+0800
18小时前
查看轨道信息
半长轴: 6861.193km
偏心率: 0.0001937
轨道倾角: 43.003°
近地点辐角 179.807°
升交点赤经 59.015°
平近点角 180.279°
近地点: 481.726km
远地点: 484.386km
周期: 94.267分钟
每日圈数: 15.275777
详细信息
固有亮度:
5
最大亮度:
1.5
卫星平台:
Starlink v2.0 mini
覆盖范围:
全球
运营商:
太空探索技术公司
运营商所在国:
美国
制造商(研发单位):
太空探索技术公司
制造商所在国:
美国
使用方式:
暂无
卫星简介
星链(Starlink)计划是由太空探索技术公司(SpaceX)提出的一个巨型低轨卫星互联网星座项目,计划在2019年至2024年间在太空搭建由约1.2万颗卫星组成的“星链”网络,其中1584颗将部署在地球上空550千米处的近地轨道,并从2020年开始工作。该卫星仍在工作。
2D轨道图
3D轨道图
轨道高度分析图
轨道倾角分析图
轨道综合分析图
查看轨道综合分析图